Hourly Data Report for October 01, 2019

QUALICUM BEACH AIRPORT
BRITISH COLUMBIA
Current Station Operator: ECCC - MSC

49°20'14.000" N
124°23'38.000" W
58.20 m
1026562
71766
VOQ

Download Data

Hourly Data (October 2019)
Hourly Data Report for October 1, 2019
TIME
LST
Temp Definition
°C
Dew Point Definition
°C
Rel Hum Definition
%
Precip. Amount Definition
mm

Wind Dir Definition
10's deg

Wind Spd Definition
km/h
Visibility Definition
km
Stn Press Definition
kPa
Hmdx Definition


Wind Chill Definition


Weather Definition


00:00 3.9 2.3 89 0.0   0   101.39     LegendNANA
01:00 4.2 2.5 89 0.0 18 1   101.41     LegendNANA
02:00 3.9 2.4 90 0.0 18 1   101.42     LegendNANA
03:00 3.4 1.6 88 0.0   0   101.41     LegendNANA
04:00 2.8 1.5 91 0.0 0 1   101.41     LegendNANA
05:00 2.2 1.3 93 0.0 25 1   101.45     LegendNANA
06:00 1.5 0.7 94 0.0 0 1   101.47     LegendNANA
07:00 2.3 1.5 94 0.0 24 1   101.50     LegendNANA
08:00 6.0 3.4 83 0.0   0   101.51     LegendNANA
09:00 7.8 4.5 79 0.0 0 1   101.53     LegendNANA
10:00 11.8 6.6 70 0.0 10 9   101.50     LegendNANA
11:00 12.0 7.2 72 0.0 9 11   101.47     LegendNANA
12:00 12.3 7.0 70 0.0 8 12   101.43     LegendNANA
13:00 12.3 6.2 66 0.0 10 13   101.41     LegendNANA
14:00 12.7 6.5 66 0.0 11 12   101.36     LegendNANA
15:00 13.0 6.6 65 0.0 10 12   101.31     LegendNANA
16:00 12.7 6.0 63 0.0 10 10   101.28     LegendNANA
17:00 13.0 5.6 61 0.0 9 6   101.25     LegendNANA
18:00 11.2 7.0 75 0.0 10 4   101.23     LegendNANA
19:00 9.5 6.7 82 0.0 0 1   101.22     LegendNANA
20:00 8.4 6.5 88 0.0 0 1   101.22     LegendNANA
21:00 6.9 5.5 91 0.0 17 2   101.20     LegendNANA
22:00 6.7 5.4 92 0.0 23 1   101.20     LegendNANA
23:00 6.2 5.1 93 0.0 21 2   101.19     LegendNANA

Notes on Data Quality.

Legend

  • E = Estimated
  • M = Missing
  • NA = Not Available*
  • [empty] = Indicates an unobserved value
Date modified: